Meteo Giornale » Osservazioni meteo Gran Bretagna » Scilly Saint Mary'S
ore: 07:50 - Osservazioni Meteo Scilly Saint Mary'S
Lat. 49° 55' N Lon. 6° 18' W Alt. 31 metri s.l.m.
16 °C
Pioggia nelle vicinanze
Temp. 24 Ore
16 °C
20 °C
Ovest/Sud-Ovest
9.3 Km/h
Dew point 14 °C
Umidità 87 %
Visibilità 10 Km
Il sole sorge alle ore 06:40
Il sole tramonta alle ore 20:09
| Data e Ora | Cielo e Fenomeni | T °C | DP °C | Um. % | Pres. hPa | Vis. km | Vento km/h | |
|---|---|---|---|---|---|---|---|---|
| Oggi h: 07:50 | Pioggia nelle vicinanze | 16 | 14 | 87 | 1021 | 10 | O/SO 9.3 | |
| Oggi h: 07:20 | Poco Nuvoloso | 16 | 13 | 82 | 1021 | 10 | O/SO 11.1 | |
| Ieri h: 17:50 | Poco Nuvoloso | 18 | 13 | 72 | 1020 | 10 | O 14.8 | |
| Ieri h: 17:20 | Poco Nuvoloso | 19 | 12 | 63 | 1020 | 10 | O/NO 16.7 | |
| Ieri h: 16:50 | Poco Nuvoloso | 19 | 12 | 63 | 1020 | 10 | O/NO 18.5 | |
| Ieri h: 16:20 | Poco Nuvoloso | 19 | 12 | 63 | 1020 | 10 | O/NO 18.5 | |
| Ieri h: 15:50 | Nuvoloso | 19 | 12 | 63 | 1020 | 10 | O/NO 20.3 | |
| Ieri h: 15:20 | Poco Nuvoloso | 20 | 11 | 56 | 1020 | 10 | NO 18.5 | |
| Ieri h: 14:50 | Poco Nuvoloso | 20 | 12 | 59 | 1020 | 10 | O/NO 22.2 | |
| Ieri h: 14:20 | Poco Nuvoloso | 20 | 11 | 56 | 1019 | 10 | O/NO 24 | |
| Ieri h: 13:50 | Poco Nuvoloso | 20 | 11 | 56 | 1019 | 10 | O/NO 22.2 | |
| Ieri h: 13:20 | Poco Nuvoloso | 20 | 12 | 59 | 1019 | 10 | O/NO 25.9 | |
| Ieri h: 12:50 | Nuvoloso | 19 | 12 | 63 | 1019 | 10 | NO 24 | |
| Ieri h: 12:20 | Nuvoloso | 20 | 13 | 64 | 1018 | 10 | O/NO 20.3 | |
| Ieri h: 11:50 | Nuvoloso | 19 | 12 | 63 | 1018 | 10 | NO 20.3 | |
| Ieri h: 11:20 | Poco Nuvoloso | 19 | 13 | 68 | 1017 | 10 | NO 18.5 | |
| Ieri h: 10:50 | Nuvoloso | 18 | 13 | 72 | 1017 | 10 | NO 22.2 | |
| Ieri h: 10:20 | Nuvoloso | 19 | 13 | 68 | 1017 | 10 | NO 24 | |
| Ieri h: 09:50 | Poco Nuvoloso | 19 | 12 | 63 | 1016 | 10 | NO 22.2 | |
| Ieri h: 09:20 | Poco Nuvoloso | 19 | 13 | 68 | 1016 | 10 | NO 29.6 | |
| Ieri h: 08:50 | Nuvoloso | 18 | 13 | 72 | 1015 | 10 | NO 27.8 | |



